Location: Vaughan
(31.9146°N, 97.1736°W)
Time: 13:55:05
(UTC+00:00)

Cosmos 372 Rocket - Pass Details

Date: 10 December 2025
Orbit: 734 x 761 km, 74.1° (Epoch: 19 January)

Event Time Altitude Azimuth Distance (km) Brightness Sun altitude
Exits shadow 11:30:35 43° 331° (NNW) 1,022 4.3 -22.3°
Maximum altitude 11:32:13 76° 256° (WSW) 757 3.8 -21.9°
Drops below altitude 10° 11:37:15 10° 170° (S) 2,230 6.7 -20.9°
Sets 11:39:36 0° 169° (S) 3,151 7.5 -20.4°
